Tracking 29933 objects as of 2-Dec-2024
HD Live streaming from Space Station
objects crossing your sky now

STARLINK-31177

Track STARLINK-31177 now!
10-day predictions
STARLINK-31177 is classified as:


NORAD ID: 58873
Int'l Code: 2024-019W
Perigee: 495.0 km
Apogee: 495.4 km
Inclination: 43.0 °
Period: 94.4 minutes
Semi major axis: 6866 km
RCS: Unknown
Launch date: January 29, 2024
Source: United States (US)
Launch site: AIR FORCE EASTERN TEST RANGE (AFETR)
Your satellite tracking list
Your tracking list is empty




NASA's NSSDC Master Catalog

Two Line Element Set (TLE):
1 58873U 24019W   24336.04015670  .00001285  00000-0  58962-4 0  9998
2 58873  42.9998 343.9009 0000250 167.7581 192.3276 15.25902242 48211
Source of the keplerian elements: AFSPC